Tracking 19476 objects as of 17-Jan-2019
HD Live streaming from Space Station
objects crossing your sky now

REMDEB-DS2

Track REMDEB-DS2 now!
10-day predictions


NORAD ID: 43680
Int'l Code: 1998-067PR
Perigee: 400.2 km
Apogee: 403.7 km
Inclination: 51.6 °
Period: 92.5 minutes
Semi major axis: 6772 km
RCS: Unknown
Launch date: November 20, 1998
Source: United Kingdom (UK)
Launch site: TYURATAM MISSILE AND SPACE COMPLEX (TTMTR)
aabbcc
Your satellite tracking list
Your tracking list is empty




NASA's NSSDC Master Catalog

Two Line Element Set (TLE):
1 43680U 98067PR  19016.95749323 +.00010343 +00000-0 +14425-3 0  9990
2 43680 051.6405 030.9971 0002536 298.6100 061.4670 15.57529226032750
Source of the keplerian elements: AFSPC